Starlink 4673

operational
NORAD ID: 53589 Int'l Des: 2022-104 Owner: SPXS Country: US Constellation: starlink
LEOCIRCULAR

Über Starlink 4673

Beschreibung wird geladen...

Live-Position

3D-Globus wird geladen...

Nächste Überflüge

Höhenverlauf

Altitude vs Time

uPlot chart will show altitude changes over time

Zweizeiliger Elementsatz

1 53589U 22104B 25351.88014859 -.00001393 00000-0 -69463-4 0 9998
2 53589 53.2166 251.4293 0001309 86.6475 273.4666 15.08839576183592
Epoch: 17. Dez. 2025 • Age: 12 hours

Aktueller Status

Höhe 557.7 km
Geschwindigkeit 7.58 km/s
Subsatellitenpunkt -49.51°S, 41.59°W
Startdatum 28. Aug. 2022
Alter 3.3 years
Typ internet

Technische Details

Klassifizierung Payload
Masse 300.00 kg
Trockenmasse 290.00 kg
Gesamtmasse 300.00 kg
Länge 0.20 m
Durchmesser 2.80 m
Spannweite 9.00 m
Form Box + pan
Hersteller SPXS
Bus-Typ Starlink
Phasenstatus In Orbit
Besitzer/Staat SPXS/US

Große Konstellationen

Loading constellations...